NWK1601 YPLM-YPPH

Flight info

Callsign NWK1601
Flight time 1h 34m
Altitude 37000
Route LM Y207 BORVI B469 TOPIR L514 AVPAL Q38 JULIM JULI8A
Aircraft A319/M-SDE3FGHIRWY/LB1

Departure

Time 2026-05-06 12:23
Airport Learmonth Airport (YPLM)

Arrival

Time 2026-05-06 13:58
Airport Perth International Airport (YPPH)
Time Latitude Longitude Altitude Speed Heading
2026-05-06 12:04 -22.23945 114.09324 25 ft 0 kts 130°
2026-05-06 12:18 -22.23948 114.09325 25 ft 0 kts 174°
2026-05-06 12:18 -22.23958 114.09311 25 ft 4 kts 230°
2026-05-06 12:18 -22.23984 114.09280 26 ft 7 kts 229°
2026-05-06 12:19 -22.24019 114.09212 26 ft 13 kts 263°
2026-05-06 12:19 -22.24013 114.09093 26 ft 18 kts 273°
2026-05-06 12:19 -22.23963 114.08963 26 ft 22 kts 349°
2026-05-06 12:19 -22.23796 114.08973 26 ft 25 kts
2026-05-06 12:20 -22.23621 114.08986 26 ft 25 kts
2026-05-06 12:20 -22.23444 114.09000 26 ft 25 kts
2026-05-06 12:20 -22.23261 114.09013 25 ft 26 kts
2026-05-06 12:20 -22.23075 114.09026 25 ft 26 kts
2026-05-06 12:21 -22.22889 114.09039 25 ft 26 kts
2026-05-06 12:21 -22.22697 114.09055 22 ft 28 kts
2026-05-06 12:21 -22.22499 114.09069 22 ft 28 kts
2026-05-06 12:21 -22.22308 114.09083 22 ft 26 kts
2026-05-06 12:22 -22.22126 114.09096 22 ft 24 kts
2026-05-06 12:22 -22.22004 114.09117 22 ft 8 kts 14°
2026-05-06 12:22 -22.21991 114.09106 22 ft 3 kts 233°
2026-05-06 12:22 -22.22033 114.09102 22 ft 12 kts 185°
2026-05-06 12:23 -22.22327 114.09077 22 ft 77 kts 185°
2026-05-06 12:23 -22.23094 114.09022 26 ft 138 kts 184°
2026-05-06 12:23 -22.24145 114.08946 351 ft 158 kts 185°
2026-05-06 12:23 -22.25254 114.08855 969 ft 161 kts 182°
2026-05-06 12:24 -22.26360 114.08824 1666 ft 159 kts 168°
2026-05-06 12:24 -22.27425 114.09095 2161 ft 164 kts 160°
2026-05-06 12:24 -22.28562 114.09476 2514 ft 180 kts 159°
2026-05-06 12:24 -22.29845 114.09898 2849 ft 202 kts 160°
2026-05-06 12:25 -22.31246 114.10339 3287 ft 220 kts 161°
2026-05-06 12:25 -22.32792 114.10809 3754 ft 238 kts 161°
2026-05-06 12:25 -22.34437 114.11297 4238 ft 255 kts 161°
2026-05-06 12:25 -22.36181 114.11807 4967 ft 263 kts 161°
2026-05-06 12:26 -22.37963 114.12325 5790 ft 267 kts 161°
2026-05-06 12:26 -22.39760 114.12847 6607 ft 271 kts 161°
2026-05-06 12:26 -22.41584 114.13379 7434 ft 275 kts 162°
2026-05-06 12:26 -22.43428 114.13917 8251 ft 278 kts 162°
2026-05-06 12:27 -22.45301 114.14462 9047 ft 282 kts 163°
2026-05-06 12:27 -22.47194 114.15012 9815 ft 286 kts 164°
2026-05-06 12:27 -22.49132 114.15575 10528 ft 292 kts 164°
2026-05-06 12:27 -22.51143 114.16157 10943 ft 308 kts 165°
2026-05-06 12:28 -22.53300 114.16780 11296 ft 326 kts 165°
2026-05-06 12:28 -22.55524 114.17423 11843 ft 335 kts 165°
2026-05-06 12:28 -22.57781 114.18079 12549 ft 338 kts 165°
2026-05-06 12:28 -22.60037 114.18733 13228 ft 341 kts 166°
2026-05-06 12:29 -22.62344 114.19403 13908 ft 344 kts 166°
2026-05-06 12:29 -22.64674 114.20079 14552 ft 348 kts 166°
2026-05-06 12:29 -22.67000 114.20754 15178 ft 352 kts 166°
2026-05-06 12:29 -22.69382 114.21446 15813 ft 355 kts 166°
2026-05-06 12:30 -22.71794 114.22147 16441 ft 359 kts 166°
2026-05-06 12:30 -22.74200 114.22846 17039 ft 362 kts 167°
2026-05-06 12:30 -22.76666 114.23563 17636 ft 366 kts 167°
2026-05-06 12:30 -22.79112 114.24276 18210 ft 369 kts 167°
2026-05-06 12:31 -22.81606 114.25003 18791 ft 372 kts 167°
2026-05-06 12:31 -22.84140 114.25741 19349 ft 375 kts 167°
2026-05-06 12:31 -22.86655 114.26472 19895 ft 378 kts 167°
2026-05-06 12:31 -22.89220 114.27221 20442 ft 381 kts 168°
2026-05-06 12:32 -22.91774 114.27966 20983 ft 384 kts 168°
2026-05-06 12:32 -22.94377 114.28725 21522 ft 386 kts 168°
2026-05-06 12:32 -22.96967 114.29480 22036 ft 389 kts 168°
2026-05-06 12:32 -22.99599 114.30249 22529 ft 392 kts 168°
2026-05-06 12:33 -23.02235 114.31020 23017 ft 394 kts 168°
2026-05-06 12:33 -23.04898 114.31799 23473 ft 397 kts 168°
2026-05-06 12:33 -23.07579 114.32584 23918 ft 399 kts 169°
2026-05-06 12:33 -23.10272 114.33374 24345 ft 402 kts 169°
2026-05-06 12:34 -23.12972 114.34164 24761 ft 404 kts 169°
2026-05-06 12:34 -23.15681 114.34958 25161 ft 407 kts 169°
2026-05-06 12:34 -23.18419 114.35760 25562 ft 409 kts 170°
2026-05-06 12:34 -23.21207 114.36577 25962 ft 412 kts 170°
2026-05-06 12:35 -23.23962 114.37384 26355 ft 414 kts 171°
2026-05-06 12:35 -23.26768 114.38207 26743 ft 416 kts 171°
2026-05-06 12:35 -23.29587 114.39033 27125 ft 419 kts 171°
2026-05-06 12:35 -23.32395 114.39857 27497 ft 421 kts 171°
2026-05-06 12:36 -23.35228 114.40689 27871 ft 423 kts 171°
2026-05-06 12:36 -23.38074 114.41524 28234 ft 426 kts 172°
2026-05-06 12:36 -23.40964 114.42373 28586 ft 428 kts 172°
2026-05-06 12:36 -23.43843 114.43220 28928 ft 430 kts 172°
2026-05-06 12:37 -23.46753 114.44076 29247 ft 433 kts 172°
2026-05-06 12:37 -23.49673 114.44935 29605 ft 435 kts 172°
2026-05-06 12:37 -23.52591 114.45793 29936 ft 436 kts 172°
2026-05-06 12:37 -23.55514 114.46655 30283 ft 437 kts 172°
2026-05-06 12:38 -23.58452 114.47522 30617 ft 439 kts 173°
2026-05-06 12:38 -23.61415 114.48397 31017 ft 438 kts 173°
2026-05-06 12:38 -23.64343 114.49264 31468 ft 435 kts 173°
2026-05-06 12:38 -23.67259 114.50128 31896 ft 433 kts 173°
2026-05-06 12:39 -23.70160 114.50986 32314 ft 431 kts 174°
2026-05-06 12:39 -23.73102 114.51857 32715 ft 429 kts 174°
2026-05-06 12:39 -23.75977 114.52707 33133 ft 428 kts 174°
2026-05-06 12:39 -23.78851 114.53556 33618 ft 425 kts 175°
2026-05-06 12:40 -23.81706 114.54400 34070 ft 423 kts 175°
2026-05-06 12:40 -23.84534 114.55235 34524 ft 421 kts 175°
2026-05-06 12:40 -23.87377 114.56076 34941 ft 419 kts 175°
2026-05-06 12:40 -23.90156 114.56898 35326 ft 418 kts 175°
2026-05-06 12:41 -23.92991 114.57739 35656 ft 418 kts 175°
2026-05-06 12:41 -23.95798 114.58568 35901 ft 419 kts 175°
2026-05-06 12:41 -23.98591 114.59394 36144 ft 420 kts 175°
2026-05-06 12:41 -24.01439 114.60238 36387 ft 421 kts 175°
2026-05-06 12:42 -24.04273 114.61079 36599 ft 422 kts 175°
2026-05-06 12:42 -24.07114 114.61922 36789 ft 423 kts 175°
2026-05-06 12:42 -24.09966 114.62769 36996 ft 424 kts 175°
2026-05-06 12:42 -24.12827 114.63619 37121 ft 424 kts 175°
2026-05-06 12:43 -24.18532 114.65318 37130 ft 425 kts 175°
2026-05-06 12:43 -24.24236 114.67017 37136 ft 425 kts 175°
2026-05-06 12:44 -24.29936 114.68716 37141 ft 425 kts 175°
2026-05-06 12:44 -24.35677 114.70429 37145 ft 425 kts 175°
2026-05-06 12:45 -24.41398 114.72139 37148 ft 424 kts 175°
2026-05-06 12:46 -24.49941 114.74693 37152 ft 425 kts 175°
2026-05-06 12:46 -24.55675 114.76409 37149 ft 426 kts 175°
2026-05-06 12:47 -24.61438 114.78136 37149 ft 426 kts 175°
2026-05-06 12:47 -24.67159 114.79853 37154 ft 425 kts 174°
2026-05-06 12:48 -24.72868 114.81567 37154 ft 425 kts 174°
2026-05-06 12:48 -24.78575 114.83283 37157 ft 425 kts 174°
2026-05-06 12:49 -24.84268 114.84997 37158 ft 424 kts 174°
2026-05-06 12:49 -24.89983 114.86717 37157 ft 425 kts 175°
2026-05-06 12:50 -24.95701 114.88409 37160 ft 425 kts 175°
2026-05-06 12:50 -25.01410 114.90102 37158 ft 425 kts 175°
2026-05-06 12:51 -25.07120 114.91794 37163 ft 425 kts 174°
2026-05-06 12:51 -25.12819 114.93489 37164 ft 424 kts 175°
2026-05-06 12:52 -25.18565 114.95196 37169 ft 426 kts 174°
2026-05-06 12:52 -25.24267 114.96893 37176 ft 426 kts 174°
2026-05-06 12:53 -25.30000 114.98605 37179 ft 426 kts 174°
2026-05-06 12:53 -25.35721 115.00311 37178 ft 426 kts 174°
2026-05-06 12:54 -25.41484 115.02033 37182 ft 427 kts 174°
2026-05-06 12:54 -25.47235 115.03752 37187 ft 427 kts 174°
2026-05-06 12:55 -25.52951 115.05464 37191 ft 427 kts 174°
2026-05-06 12:55 -25.58695 115.07185 37196 ft 428 kts 174°
2026-05-06 12:56 -25.64471 115.08916 37202 ft 428 kts 173°
2026-05-06 12:56 -25.70248 115.10651 37200 ft 429 kts 173°
2026-05-06 12:57 -25.76012 115.12383 37207 ft 428 kts 173°
2026-05-06 12:57 -25.81760 115.14111 37215 ft 429 kts 173°
2026-05-06 12:58 -25.87525 115.15849 37217 ft 429 kts 173°
2026-05-06 12:58 -25.93287 115.17585 37226 ft 429 kts 173°
2026-05-06 12:59 -25.99047 115.19325 37219 ft 429 kts 173°
2026-05-06 12:59 -26.04802 115.21066 37237 ft 428 kts 173°
2026-05-06 13:00 -26.10605 115.22818 37233 ft 429 kts 173°
2026-05-06 13:00 -26.16387 115.24569 37229 ft 429 kts 173°
2026-05-06 13:01 -26.22151 115.26314 37241 ft 429 kts 172°
2026-05-06 13:01 -26.27906 115.28059 37244 ft 429 kts 172°
2026-05-06 13:02 -26.33687 115.29814 37241 ft 430 kts 172°
2026-05-06 13:02 -26.39463 115.31568 37255 ft 430 kts 172°
2026-05-06 13:03 -26.45264 115.33336 37255 ft 429 kts 172°
2026-05-06 13:03 -26.51007 115.35085 37255 ft 429 kts 172°
2026-05-06 13:04 -26.56790 115.36848 37251 ft 430 kts 172°
2026-05-06 13:04 -26.62548 115.38605 37263 ft 430 kts 172°
2026-05-06 13:05 -26.68349 115.40376 37258 ft 430 kts 172°
2026-05-06 13:05 -26.74097 115.42133 37271 ft 429 kts 172°
2026-05-06 13:06 -26.79862 115.43901 37257 ft 429 kts 172°
2026-05-06 13:06 -26.85626 115.45667 37272 ft 430 kts 172°
2026-05-06 13:07 -26.91390 115.47433 37267 ft 430 kts 172°
2026-05-06 13:07 -26.97174 115.49209 37275 ft 431 kts 171°
2026-05-06 13:08 -27.03008 115.51003 37272 ft 431 kts 171°
2026-05-06 13:08 -27.08757 115.52773 37276 ft 430 kts 171°
2026-05-06 13:09 -27.14593 115.54572 37278 ft 431 kts 171°
2026-05-06 13:09 -27.20378 115.56359 37276 ft 432 kts 171°
2026-05-06 13:10 -27.26195 115.58156 37284 ft 431 kts 171°
2026-05-06 13:10 -27.31953 115.59937 37285 ft 431 kts 171°
2026-05-06 13:11 -27.37726 115.62016 37287 ft 436 kts 165°
2026-05-06 13:11 -27.43296 115.64812 37286 ft 441 kts 160°
2026-05-06 13:12 -27.48765 115.67938 37282 ft 441 kts 159°
2026-05-06 13:12 -27.54261 115.71099 37288 ft 441 kts 159°
2026-05-06 13:13 -27.59692 115.74222 37288 ft 441 kts 159°
2026-05-06 13:13 -27.65185 115.77379 37297 ft 441 kts 158°
2026-05-06 13:14 -27.70625 115.80508 37296 ft 442 kts 159°
2026-05-06 13:14 -27.76125 115.83675 37302 ft 442 kts 158°
2026-05-06 13:15 -27.81609 115.86838 37302 ft 442 kts 158°
2026-05-06 13:15 -27.87053 115.89980 37308 ft 442 kts 158°
2026-05-06 13:16 -27.92555 115.93157 37314 ft 442 kts 158°
2026-05-06 13:16 -27.98015 115.96317 37307 ft 441 kts 158°
2026-05-06 13:17 -28.03478 115.99481 37319 ft 441 kts 158°
2026-05-06 13:17 -28.08951 116.02656 37325 ft 440 kts 158°
2026-05-06 13:18 -28.14395 116.05818 37324 ft 441 kts 158°
2026-05-06 13:18 -28.19862 116.08991 37332 ft 441 kts 158°
2026-05-06 13:19 -28.25335 116.12176 37332 ft 441 kts 158°
2026-05-06 13:19 -28.30794 116.15358 37337 ft 441 kts 158°
2026-05-06 13:20 -28.36263 116.18546 37334 ft 441 kts 158°
2026-05-06 13:20 -28.41693 116.21717 37339 ft 441 kts 158°
2026-05-06 13:21 -28.47128 116.24895 37340 ft 440 kts 157°
2026-05-06 13:21 -28.52592 116.28091 37349 ft 440 kts 157°
2026-05-06 13:22 -28.58003 116.31262 37354 ft 440 kts 157°
2026-05-06 13:22 -28.63437 116.34449 37347 ft 440 kts 157°
2026-05-06 13:23 -28.68885 116.37650 37359 ft 439 kts 157°
2026-05-06 13:23 -28.74320 116.40845 37362 ft 439 kts 157°
2026-05-06 13:24 -28.79774 116.44057 37360 ft 440 kts 157°
2026-05-06 13:24 -28.85189 116.47248 37361 ft 439 kts 156°
2026-05-06 13:25 -28.90659 116.50477 37365 ft 439 kts 156°
2026-05-06 13:25 -28.96072 116.53675 37367 ft 439 kts 156°
2026-05-06 13:26 -29.01488 116.56879 37370 ft 439 kts 156°
2026-05-06 13:26 -29.06902 116.60088 37374 ft 439 kts 156°
2026-05-06 13:27 -29.12377 116.63203 37380 ft 436 kts 161°
2026-05-06 13:27 -29.18131 116.65415 37379 ft 432 kts 169°
2026-05-06 13:28 -29.24043 116.66515 37317 ft 429 kts 178°
2026-05-06 13:28 -29.29973 116.66607 37352 ft 428 kts 184°
2026-05-06 13:29 -29.35974 116.66440 37382 ft 429 kts 184°
2026-05-06 13:29 -29.41911 116.66271 37387 ft 429 kts 184°
2026-05-06 13:30 -29.47892 116.66108 37371 ft 429 kts 184°
2026-05-06 13:30 -29.53843 116.65947 37391 ft 429 kts 184°
2026-05-06 13:31 -29.59850 116.65786 37387 ft 429 kts 184°
2026-05-06 13:31 -29.65782 116.65626 37384 ft 429 kts 184°
2026-05-06 13:32 -29.71774 116.65465 37392 ft 428 kts 183°
2026-05-06 13:32 -29.77713 116.65305 37385 ft 428 kts 183°
2026-05-06 13:33 -29.83722 116.65143 37394 ft 429 kts 183°
2026-05-06 13:33 -29.89709 116.64981 37393 ft 429 kts 183°
2026-05-06 13:33 -29.92683 116.64902 37193 ft 424 kts 183°
2026-05-06 13:34 -29.95621 116.64822 36609 ft 423 kts 183°
2026-05-06 13:34 -29.98560 116.64740 35964 ft 422 kts 182°
2026-05-06 13:34 -30.01501 116.64659 35455 ft 421 kts 182°
2026-05-06 13:34 -30.04406 116.64580 34922 ft 421 kts 182°
2026-05-06 13:35 -30.07352 116.64500 34353 ft 422 kts 182°
2026-05-06 13:35 -30.10267 116.64420 33752 ft 424 kts 182°
2026-05-06 13:35 -30.13240 116.64339 33072 ft 425 kts 181°
2026-05-06 13:35 -30.16218 116.64257 32373 ft 427 kts 181°
2026-05-06 13:36 -30.19186 116.64177 31670 ft 428 kts 181°
2026-05-06 13:36 -30.22151 116.64096 30944 ft 430 kts 181°
2026-05-06 13:36 -30.25187 116.64014 30244 ft 431 kts 180°
2026-05-06 13:36 -30.28207 116.63932 29729 ft 426 kts 180°
2026-05-06 13:37 -30.31138 116.63854 29203 ft 422 kts 180°
2026-05-06 13:37 -30.34051 116.63776 28649 ft 419 kts 180°
2026-05-06 13:37 -30.36964 116.63699 28075 ft 416 kts 180°
2026-05-06 13:37 -30.39839 116.63620 27511 ft 413 kts 180°
2026-05-06 13:38 -30.42684 116.63542 26964 ft 409 kts 180°
2026-05-06 13:38 -30.45539 116.63464 26405 ft 406 kts 180°
2026-05-06 13:38 -30.48340 116.63387 25857 ft 403 kts 180°
2026-05-06 13:38 -30.51160 116.63309 25291 ft 401 kts 181°
2026-05-06 13:39 -30.53919 116.63096 24748 ft 398 kts 186°
2026-05-06 13:39 -30.56628 116.62558 24209 ft 396 kts 192°
2026-05-06 13:39 -30.59281 116.61702 23674 ft 393 kts 197°
2026-05-06 13:39 -30.61865 116.60714 23151 ft 391 kts 198°
2026-05-06 13:40 -30.64426 116.59706 22656 ft 388 kts 198°
2026-05-06 13:40 -30.66986 116.58697 22166 ft 385 kts 197°
2026-05-06 13:40 -30.69505 116.57709 21685 ft 382 kts 197°
2026-05-06 13:40 -30.72012 116.56728 21223 ft 379 kts 197°
2026-05-06 13:41 -30.74495 116.55760 20772 ft 376 kts 197°
2026-05-06 13:41 -30.76993 116.54787 20312 ft 374 kts 197°
2026-05-06 13:41 -30.79427 116.53838 19878 ft 371 kts 197°
2026-05-06 13:41 -30.81883 116.52881 19434 ft 368 kts 197°
2026-05-06 13:42 -30.84293 116.51942 18994 ft 366 kts 197°
2026-05-06 13:42 -30.86711 116.51000 18550 ft 363 kts 197°
2026-05-06 13:42 -30.89088 116.50071 18105 ft 361 kts 197°
2026-05-06 13:42 -30.91454 116.49146 17654 ft 359 kts 197°
2026-05-06 13:43 -30.93840 116.48213 17203 ft 358 kts 197°
2026-05-06 13:43 -30.96175 116.47298 16784 ft 355 kts 197°
2026-05-06 13:43 -30.98509 116.46385 16357 ft 353 kts 196°
2026-05-06 13:43 -31.00824 116.45477 15935 ft 351 kts 196°
2026-05-06 13:44 -31.03151 116.44566 15508 ft 349 kts 196°
2026-05-06 13:44 -31.05430 116.43674 15118 ft 346 kts 196°
2026-05-06 13:44 -31.07697 116.42785 14929 ft 336 kts 196°
2026-05-06 13:44 -31.09868 116.41933 14757 ft 327 kts 196°
2026-05-06 13:45 -31.11990 116.41100 14599 ft 318 kts 196°
2026-05-06 13:45 -31.16104 116.39484 14224 ft 304 kts 196°
2026-05-06 13:45 -31.18078 116.38708 13900 ft 302 kts 196°
2026-05-06 13:46 -31.20068 116.37927 13550 ft 301 kts 196°
2026-05-06 13:46 -31.22068 116.37139 13210 ft 300 kts 196°
2026-05-06 13:46 -31.24044 116.36362 12870 ft 299 kts 196°
2026-05-06 13:46 -31.26017 116.35584 12529 ft 298 kts 196°
2026-05-06 13:47 -31.27959 116.34818 12197 ft 297 kts 197°
2026-05-06 13:47 -31.29919 116.34045 11863 ft 296 kts 197°
2026-05-06 13:47 -31.31872 116.33274 11534 ft 294 kts 197°
2026-05-06 13:47 -31.33819 116.32505 11206 ft 293 kts 197°
2026-05-06 13:48 -31.35751 116.31742 10873 ft 292 kts 197°
2026-05-06 13:48 -31.37660 116.30988 10542 ft 291 kts 197°
2026-05-06 13:48 -31.39576 116.30232 10212 ft 290 kts 197°
2026-05-06 13:48 -31.41481 116.29394 9876 ft 290 kts 201°
2026-05-06 13:49 -31.43306 116.28367 9541 ft 290 kts 206°
2026-05-06 13:49 -31.45068 116.27254 9216 ft 289 kts 207°
2026-05-06 13:49 -31.46822 116.26128 8893 ft 288 kts 207°
2026-05-06 13:49 -31.48580 116.24997 8564 ft 287 kts 207°
2026-05-06 13:50 -31.50340 116.23869 8255 ft 285 kts 207°
2026-05-06 13:50 -31.52063 116.22762 8103 ft 278 kts 207°
2026-05-06 13:50 -31.53745 116.21682 7873 ft 274 kts 207°
2026-05-06 13:50 -31.55417 116.20611 7568 ft 273 kts 207°
2026-05-06 13:51 -31.57064 116.19556 7262 ft 272 kts 207°
2026-05-06 13:51 -31.58732 116.18487 6952 ft 272 kts 207°
2026-05-06 13:51 -31.60396 116.17419 6648 ft 271 kts 207°
2026-05-06 13:51 -31.62031 116.16371 6348 ft 270 kts 207°
2026-05-06 13:52 -31.63682 116.15312 6047 ft 269 kts 207°
2026-05-06 13:52 -31.65337 116.14249 5738 ft 268 kts 206°
2026-05-06 13:52 -31.66946 116.13214 5382 ft 266 kts 206°
2026-05-06 13:52 -31.68571 116.12169 4925 ft 267 kts 206°
2026-05-06 13:53 -31.70214 116.11112 4510 ft 268 kts 206°
2026-05-06 13:53 -31.71849 116.10062 4218 ft 267 kts 206°
2026-05-06 13:53 -31.73482 116.09013 3932 ft 267 kts 206°
2026-05-06 13:53 -31.75063 116.07918 3706 ft 260 kts 215°
2026-05-06 13:54 -31.76324 116.06441 3455 ft 251 kts 230°
2026-05-06 13:54 -31.77369 116.04833 3062 ft 249 kts 232°
2026-05-06 13:54 -31.78376 116.03207 2736 ft 242 kts 232°
2026-05-06 13:54 -31.79369 116.01616 2569 ft 236 kts 231°
2026-05-06 13:55 -31.80459 116.00277 2464 ft 221 kts 205°
2026-05-06 13:55 -31.81828 115.99724 2301 ft 198 kts 184°
2026-05-06 13:55 -31.83157 115.99481 2044 ft 187 kts 180°
2026-05-06 13:55 -31.84415 115.99247 1784 ft 179 kts 181°
2026-05-06 13:56 -31.85600 115.98959 1528 ft 170 kts 184°
2026-05-06 13:56 -31.86723 115.98635 1296 ft 162 kts 186°
2026-05-06 13:56 -31.87784 115.98319 1081 ft 152 kts 187°
2026-05-06 13:56 -31.88790 115.98025 895 ft 145 kts 187°
2026-05-06 13:57 -31.89749 115.97746 701 ft 137 kts 187°
2026-05-06 13:57 -31.90676 115.97478 531 ft 136 kts 188°
2026-05-06 13:57 -31.91589 115.97214 355 ft 135 kts 189°
2026-05-06 13:57 -31.92504 115.96948 170 ft 133 kts 189°
2026-05-06 13:58 -31.93398 115.96687 76 ft 126 kts 191°
2026-05-06 13:58 -31.94093 115.96496 75 ft 77 kts 194°
2026-05-06 13:58 -31.94425 115.96352 75 ft 25 kts 241°
2026-05-06 13:58 -31.94398 115.96191 75 ft 19 kts 315°
2026-05-06 13:59 -31.94282 115.96195 74 ft 17 kts 17°
2026-05-06 13:59 -31.94168 115.96230 75 ft 17 kts 15°
2026-05-06 13:59 -31.94046 115.96268 75 ft 18 kts 15°
2026-05-06 13:59 -31.93921 115.96310 75 ft 19 kts 17°
2026-05-06 14:00 -31.93789 115.96350 75 ft 19 kts 11°
2026-05-06 14:00 -31.93654 115.96384 75 ft 20 kts 13°
2026-05-06 14:00 -31.93521 115.96423 75 ft 16 kts 14°
2026-05-06 14:00 -31.93429 115.96381 75 ft 16 kts 295°
2026-05-06 14:01 -31.93337 115.96317 75 ft 16 kts
2026-05-06 14:01 -31.93270 115.96283 75 ft 13 kts 251°
2026-05-06 14:01 -31.93288 115.96214 75 ft 2 kts 253°
2026-05-06 14:01 -31.93290 115.96209 75 ft 0 kts 253°